Indianapolis, IN

2:23 PM EDT on May 27, 2017 (GMT -0400)
Indianapolis International

Weather History for KIND - February, 2012

Change the Weather History Date:

Wednesday, February 29, 2012

  Actual Average Record
Temperature  
Mean Temperature 57 °F 36 °F  
Max Temperature 69 °F 45 °F 74 °F (1972)
Min Temperature 45 °F 28 °F -2 °F (1884)
Degree Days  
Heating Degree Days 8 29  
Month to date heating degree days 797 951  
Since 1 July heating degree days 3456 4172  
Cooling Degree Days 0 0  
Month to date cooling degree days 0 0  
Year to date cooling degree days 0 0  
Growing Degree Days 8 (Base 50)    
Moisture  
Dew Point 42 °F    
Average Humidity 61    
Maximum Humidity 93    
Minimum Humidity 29    
Precipitation  
Precipitation 0.47 in 0.09 in 0.52 in (1892)
Month to date precipitation 1.38 2.32  
Year to date precipitation 4.86 4.98  
Snow  
Snow 0.00 in 0.10 in 2.10 in (1952)
Month to date snowfall 2.2 6.5  
Since 1 July snowfall 9.1 23.1  
Snow Depth 0.00 in    
Sea Level Pressure  
Sea Level Pressure 29.68 in    
Wind  
Wind Speed 19 mph (SSW)    
Max Wind Speed 32 mph    
Max Gust Speed 41 mph    
Visibility 8 miles    
Events Rain , Thunderstorm    
T = Trace of Precipitation, MM = Missing Value Source: NWS Daily Summary

Daily Weather History Graph

Daily Weather History Graph

Search for Another Location

Airport or City:

Trip Planner

Search our weather history database for the weather conditions in past years. The results will help you decide how hot, cold, wet, or windy it might be!

Date:

Astronomy

Feb. 29, 2012 Rise Set
Actual Time 7:18 AM EST 6:36 PM EST
Civil Twilight 6:51 AM EST 7:03 PM EST
Nautical Twilight 6:20 AM EST 7:35 PM EST
Astronomical Twilight 5:49 AM EST 8:06 PM EST
Moon 11:10 AM EST (2/29) 1:22 AM EST (2/29)
Length of Visible Light 12h 11m
Length of Day
11h 17m
Waxing Crescent, 47% of the Moon is Illuminated
Feb 29
Waxing Crescent
Feb 29
First Quarter
Mar 8
Full
Mar 14
Last Quarter
Mar 22
New

Hourly Weather History & Observations

Time (EST) Temp. Windchill Dew Point Humidity Pressure Visibility Wind Dir Wind Speed Gust Speed Precip Events Conditions
12:11 AM 50.0 °F - 37.4 °F 62% 29.87 in 8.0 mi SE 16.1 mph 24.2 mph 0.00 in Rain , Thunderstorm Light Thunderstorms and Rain
12:54 AM 50.0 °F - 39.0 °F 66% 29.85 in 3.0 mi SE 16.1 mph 21.9 mph 0.05 in Rain Heavy Rain
1:13 AM 48.2 °F - 41.0 °F 76% 29.79 in 10.0 mi ESE 13.8 mph - 0.06 in Rain , Thunderstorm Light Thunderstorms and Rain
1:54 AM 48.9 °F - 43.0 °F 80% 29.81 in 2.5 mi South 8.1 mph - 0.17 in Rain , Thunderstorm Heavy Thunderstorms and Rain
2:03 AM 48.2 °F - 44.6 °F 87% 29.78 in 4.0 mi SE 10.4 mph - 0.10 in Rain , Thunderstorm Thunderstorms and Rain
2:12 AM 48.2 °F - 44.6 °F 87% 29.77 in 2.5 mi SE 12.7 mph - 0.10 in Rain , Thunderstorm Light Thunderstorms and Rain
2:26 AM 48.2 °F - 44.6 °F 87% 29.76 in 5.0 mi SE 8.1 mph - 0.17 in Rain , Thunderstorm Thunderstorms and Rain
2:42 AM 48.2 °F - 44.6 °F 87% 29.76 in 6.0 mi SE 6.9 mph - 0.17 in Rain Light Rain
2:54 AM 48.0 °F - 45.0 °F 89% 29.75 in 8.0 mi ESE 8.1 mph - 0.18 in   Light Drizzle
3:38 AM 48.2 °F - 46.4 °F 93% 29.72 in 7.0 mi ESE 6.9 mph - 0.02 in Rain Light Rain
3:54 AM 50.0 °F - 46.9 °F 89% 29.72 in 6.0 mi SE 8.1 mph - 0.05 in Rain Light Rain
4:23 AM 51.8 °F - 48.2 °F 88% 29.72 in 5.0 mi South 5.8 mph - 0.00 in Rain Light Rain
4:54 AM 53.1 °F - 51.1 °F 93% 29.69 in 7.0 mi SSE 8.1 mph - 0.02 in   Overcast
5:22 AM 53.6 °F - 51.8 °F 94% 29.68 in 5.0 mi SSE 10.4 mph - N/A   Overcast
5:54 AM 55.9 °F - 54.0 °F 93% 29.69 in 6.0 mi South 8.1 mph - N/A   Overcast
6:54 AM 63.0 °F - 59.0 °F 87% 29.64 in 10.0 mi SW 15.0 mph 26.5 mph 0.00 in Rain Light Rain
7:54 AM 63.0 °F - 55.9 °F 78% 29.62 in 10.0 mi SSW 23.0 mph 28.8 mph N/A   Overcast
8:54 AM 63.0 °F - 53.1 °F 70% 29.65 in 10.0 mi WSW 19.6 mph 24.2 mph N/A   Mostly Cloudy
9:54 AM 63.0 °F - 53.1 °F 70% 29.66 in 10.0 mi WSW 24.2 mph 32.2 mph N/A   Clear
11:54 AM 66.9 °F - 48.0 °F 51% 29.66 in 10.0 mi SW 19.6 mph - N/A   Clear
12:54 PM 68.0 °F - 42.1 °F 39% 29.64 in 10.0 mi WSW 19.6 mph - N/A   Partly Cloudy
1:54 PM 69.1 °F - 39.0 °F 33% 29.60 in 10.0 mi WSW 21.9 mph - N/A   Scattered Clouds
2:54 PM 68.0 °F - 37.9 °F 33% 29.57 in 10.0 mi WSW 19.6 mph 29.9 mph N/A   Partly Cloudy
3:54 PM 66.9 °F - 35.1 °F 31% 29.56 in 10.0 mi WSW 25.3 mph 34.5 mph N/A   Partly Cloudy
4:54 PM 66.0 °F - 33.1 °F 29% 29.55 in 10.0 mi WSW 28.8 mph 36.8 mph N/A   Partly Cloudy
5:54 PM 63.0 °F - 33.1 °F 33% 29.54 in 10.0 mi WSW 20.7 mph 29.9 mph N/A   Partly Cloudy
6:54 PM 60.1 °F - 30.0 °F 32% 29.55 in 10.0 mi WSW 20.7 mph 41.4 mph N/A   Partly Cloudy
7:54 PM 57.9 °F - 30.0 °F 35% 29.56 in 10.0 mi WSW 21.9 mph 29.9 mph N/A   Partly Cloudy
8:23 PM 55.4 °F - 28.4 °F 36% 29.61 in 10.0 mi WNW 25.3 mph 34.5 mph N/A   Scattered Clouds
8:54 PM 51.1 °F - 30.9 °F 46% 29.63 in 10.0 mi WNW 26.5 mph 36.8 mph N/A   Partly Cloudy
9:54 PM 48.9 °F - 30.0 °F 48% 29.67 in 10.0 mi West 24.2 mph 32.2 mph N/A   Partly Cloudy
10:54 PM 48.2 °F - 30.2 °F 50% 29.69 in 10.0 mi West 23.0 mph 28.8 mph N/A   Mostly Cloudy
11:54 PM 45.0 °F 35.1 °F 28.9 °F 53% 29.71 in 10.0 mi West 31.1 mph 40.3 mph N/A   Scattered Clouds